Location: Newark
(48.1500°N, 2.9667°W)
Time: 05:41:58
(UTC+00:00)

Altair - Pass Details

Date: 30 January 2020
Orbit: 1502 x 1682 km, 47.2° (Epoch: 19 February)

Event Time Altitude Azimuth Distance (km) Brightness Sun altitude
Rises 09:46:54 0° 261° (W) 4,889 9.8 15.2°
Reaches altitude 10° 09:50:01 10° 261° (W) 3,917 9.4 15.6°
Maximum altitude 10:00:10 85° 176° (S) 1,691 8.1 16.6°
Drops below altitude 10° 10:10:21 10° 89° (E) 3,933 10.2 17.6°
Sets 10:13:30 0° 89° (E) 4,909 10.6 17.9°
